TRA38R LGIR-EHRD

Flight info

Callsign TRA38R
Flight time 3h 32m
Altitude 36000
Route EPALO1V EPALO M749 DIRMI UL613 KOR DCT TUMBO/N0443F380 DCT RODON DCT VAKSU DCT PUL DCT PEVAL DCT MOBDO DCT SOTOV DCT XEBIX DCT USUDO DCT LIRSU DCT SOGRI L608 BUB Y28 HELEN
Aircraft B738/M-SDE2E3FGHIJ1RWXYZ/LB1

Departure

Time 2026-04-29 17:49
Airport Heraklion International Nikos Kazantzakis Airport (LGIR)

Arrival

Time 2026-04-29 21:21
Airport Rotterdam The Hague Airport (EHRD)
Time Latitude Longitude Altitude Speed Heading
2026-04-29 17:27 35.33812 25.17668 90 ft 0 kts 275°
2026-04-29 17:45 35.33818 25.17641 91 ft 7 kts 296°
2026-04-29 17:45 35.33884 25.17632 90 ft 14 kts 34°
2026-04-29 17:45 35.33893 25.17769 91 ft 20 kts 94°
2026-04-29 17:45 35.33881 25.17953 92 ft 22 kts 94°
2026-04-29 17:46 35.33870 25.18137 93 ft 21 kts 96°
2026-04-29 17:46 35.33856 25.18315 94 ft 21 kts 95°
2026-04-29 17:46 35.33843 25.18487 92 ft 20 kts 95°
2026-04-29 17:46 35.33832 25.18655 89 ft 20 kts 95°
2026-04-29 17:47 35.33821 25.18818 89 ft 19 kts 95°
2026-04-29 17:47 35.33835 25.18958 88 ft 15 kts 59°
2026-04-29 17:47 35.33899 25.18996 91 ft 8 kts 321°
2026-04-29 17:47 35.33910 25.18961 89 ft 0 kts 277°
2026-04-29 17:48 35.33912 25.18942 86 ft 9 kts 276°
2026-04-29 17:48 35.33938 25.18556 88 ft 85 kts 275°
2026-04-29 17:48 35.34009 25.17535 92 ft 154 kts 275°
2026-04-29 17:49 35.34091 25.16121 625 ft 170 kts 276°
2026-04-29 17:49 35.34573 25.14794 1343 ft 183 kts 318°
2026-04-29 17:49 35.35797 25.14074 1739 ft 207 kts 343°
2026-04-29 17:49 35.37244 25.13540 2090 ft 228 kts 343°
2026-04-29 17:50 35.38818 25.12970 2534 ft 245 kts 340°
2026-04-29 17:50 35.40380 25.11994 3162 ft 254 kts 327°
2026-04-29 17:50 35.41855 25.10831 4181 ft 252 kts 328°
2026-04-29 17:50 35.43371 25.09689 4972 ft 259 kts 329°
2026-04-29 17:51 35.44922 25.08539 5780 ft 263 kts 329°
2026-04-29 17:51 35.46498 25.07378 6608 ft 266 kts 329°
2026-04-29 17:51 35.48094 25.06202 7417 ft 270 kts 329°
2026-04-29 17:51 35.49714 25.05010 8212 ft 274 kts 329°
2026-04-29 17:52 35.51359 25.03799 8978 ft 278 kts 329°
2026-04-29 17:52 35.52486 25.02971 9508 ft 280 kts 329°
2026-04-29 17:52 35.54717 25.01334 10538 ft 284 kts 329°
2026-04-29 17:52 35.56425 25.00081 11272 ft 288 kts 329°
2026-04-29 17:53 35.58152 24.98811 12019 ft 290 kts 329°
2026-04-29 17:53 35.59904 24.97524 12603 ft 301 kts 328°
2026-04-29 17:53 35.61764 24.96155 12815 ft 321 kts 328°
2026-04-29 17:53 35.63711 24.94723 13362 ft 330 kts 328°
2026-04-29 17:54 35.65689 24.93268 14063 ft 332 kts 328°
2026-04-29 17:54 35.67682 24.91801 14797 ft 335 kts 328°
2026-04-29 17:54 35.69685 24.90326 15490 ft 337 kts 328°
2026-04-29 17:54 35.71708 24.88835 16158 ft 341 kts 328°
2026-04-29 17:55 35.73749 24.87329 16808 ft 344 kts 327°
2026-04-29 17:55 35.75805 24.85810 17432 ft 347 kts 327°
2026-04-29 17:55 35.77883 24.84276 18054 ft 349 kts 327°
2026-04-29 17:55 35.79979 24.82728 18643 ft 353 kts 327°
2026-04-29 17:56 35.82092 24.81165 19236 ft 356 kts 327°
2026-04-29 17:56 35.84220 24.79591 19851 ft 358 kts 327°
2026-04-29 17:56 35.86363 24.78005 20432 ft 360 kts 327°
2026-04-29 17:56 35.88519 24.76409 20973 ft 363 kts 327°
2026-04-29 17:57 35.90692 24.74798 21517 ft 366 kts 327°
2026-04-29 17:57 35.92880 24.73175 22048 ft 368 kts 327°
2026-04-29 17:57 35.95081 24.71541 22562 ft 371 kts 327°
2026-04-29 17:57 35.96578 24.70430 22897 ft 372 kts 327°
2026-04-29 17:58 35.99527 24.68238 23540 ft 375 kts 327°
2026-04-29 17:58 36.01768 24.66570 24008 ft 377 kts 327°
2026-04-29 17:58 36.04030 24.64887 24389 ft 382 kts 327°
2026-04-29 17:58 36.06319 24.63183 24814 ft 385 kts 326°
2026-04-29 17:59 36.08614 24.61473 25302 ft 386 kts 326°
2026-04-29 17:59 36.10916 24.59757 25758 ft 387 kts 326°
2026-04-29 17:59 36.13226 24.58033 26191 ft 389 kts 326°
2026-04-29 17:59 36.15548 24.56298 26602 ft 391 kts 326°
2026-04-29 18:00 36.17881 24.54555 27005 ft 392 kts 326°
2026-04-29 18:00 36.20222 24.52804 27401 ft 394 kts 326°
2026-04-29 18:00 36.22572 24.51045 27773 ft 396 kts 326°
2026-04-29 18:00 36.24933 24.49276 28138 ft 398 kts 326°
2026-04-29 18:01 36.27305 24.47500 28497 ft 399 kts 326°
2026-04-29 18:01 36.29686 24.45716 28838 ft 401 kts 326°
2026-04-29 18:01 36.32078 24.43922 29167 ft 403 kts 326°
2026-04-29 18:01 36.34446 24.42143 29492 ft 404 kts 326°
2026-04-29 18:02 36.36853 24.40333 29812 ft 406 kts 326°
2026-04-29 18:02 36.39269 24.38515 30128 ft 407 kts 325°
2026-04-29 18:02 36.41694 24.36690 30421 ft 409 kts 326°
2026-04-29 18:02 36.44130 24.34859 30683 ft 410 kts 326°
2026-04-29 18:03 36.46575 24.33015 30936 ft 412 kts 326°
2026-04-29 18:03 36.49034 24.31158 31178 ft 415 kts 326°
2026-04-29 18:03 36.51505 24.29291 31406 ft 417 kts 326°
2026-04-29 18:03 36.53988 24.27414 31642 ft 418 kts 326°
2026-04-29 18:04 36.56479 24.25532 31891 ft 420 kts 326°
2026-04-29 18:04 36.58975 24.23643 32116 ft 421 kts 326°
2026-04-29 18:04 36.61488 24.21740 32319 ft 424 kts 326°
2026-04-29 18:04 36.64006 24.19831 32539 ft 425 kts 326°
2026-04-29 18:05 36.66536 24.17913 32743 ft 426 kts 326°
2026-04-29 18:05 36.69074 24.15989 32929 ft 428 kts 326°
2026-04-29 18:05 36.71620 24.14055 33139 ft 429 kts 326°
2026-04-29 18:05 36.74168 24.12117 33425 ft 428 kts 326°
2026-04-29 18:06 36.76707 24.10184 33717 ft 427 kts 326°
2026-04-29 18:06 36.79240 24.08254 33989 ft 426 kts 326°
2026-04-29 18:06 36.81771 24.06325 34231 ft 426 kts 326°
2026-04-29 18:06 36.84301 24.04395 34458 ft 426 kts 326°
2026-04-29 18:07 36.86823 24.02470 34735 ft 425 kts 326°
2026-04-29 18:07 36.89309 24.00571 34965 ft 424 kts 326°
2026-04-29 18:07 36.91825 23.98561 35191 ft 423 kts 321°
2026-04-29 18:07 36.94133 23.96310 35478 ft 419 kts 319°
2026-04-29 18:08 36.96382 23.94000 35692 ft 419 kts 318°
2026-04-29 18:08 36.98620 23.91668 35865 ft 419 kts 317°
2026-04-29 18:08 37.00859 23.89333 36075 ft 419 kts 318°
2026-04-29 18:09 37.05350 23.84682 36077 ft 425 kts 318°
2026-04-29 18:09 37.09913 23.79990 36075 ft 423 kts 318°
2026-04-29 18:10 37.14465 23.75328 36075 ft 422 kts 318°
2026-04-29 18:10 37.19001 23.70672 36069 ft 421 kts 318°
2026-04-29 18:11 37.23526 23.66019 36075 ft 421 kts 318°
2026-04-29 18:11 37.28047 23.61361 36080 ft 420 kts 318°
2026-04-29 18:12 37.32566 23.56697 36071 ft 420 kts 319°
2026-04-29 18:12 37.37085 23.52028 36075 ft 421 kts 319°
2026-04-29 18:13 37.41602 23.47353 36068 ft 421 kts 319°
2026-04-29 18:13 37.46129 23.42657 36065 ft 422 kts 319°
2026-04-29 18:14 37.50664 23.37947 36069 ft 423 kts 319°
2026-04-29 18:14 37.55210 23.33218 36072 ft 424 kts 318°
2026-04-29 18:15 37.59758 23.28478 36061 ft 424 kts 318°
2026-04-29 18:15 37.64306 23.23737 36063 ft 424 kts 318°
2026-04-29 18:16 37.68853 23.18982 36061 ft 425 kts 318°
2026-04-29 18:16 37.73406 23.14214 36052 ft 425 kts 318°
2026-04-29 18:17 37.77956 23.09440 36052 ft 425 kts 318°
2026-04-29 18:17 37.82502 23.04664 36064 ft 425 kts 318°
2026-04-29 18:18 37.87052 22.99874 36050 ft 425 kts 318°
2026-04-29 18:18 37.91597 22.95083 36061 ft 425 kts 318°
2026-04-29 18:19 37.96108 22.90235 36052 ft 425 kts 317°
2026-04-29 18:19 38.00552 22.85295 36055 ft 424 kts 316°
2026-04-29 18:20 38.04982 22.80356 36048 ft 424 kts 317°
2026-04-29 18:20 38.09378 22.75454 36062 ft 423 kts 317°
2026-04-29 18:21 38.13803 22.70524 36055 ft 422 kts 316°
2026-04-29 18:21 38.18224 22.65593 36054 ft 423 kts 316°
2026-04-29 18:22 38.22650 22.60651 36056 ft 424 kts 316°
2026-04-29 18:22 38.26365 22.56496 36062 ft 425 kts 316°
2026-04-29 18:23 38.30769 22.51563 36056 ft 425 kts 316°
2026-04-29 18:23 38.35206 22.46588 36063 ft 425 kts 316°
2026-04-29 18:24 38.39643 22.41598 36066 ft 426 kts 316°
2026-04-29 18:24 38.44086 22.36593 36068 ft 427 kts 316°
2026-04-29 18:25 38.48541 22.31567 36071 ft 428 kts 316°
2026-04-29 18:25 38.53001 22.26529 36065 ft 428 kts 316°
2026-04-29 18:26 38.57464 22.21479 36069 ft 428 kts 316°
2026-04-29 18:26 38.61921 22.16425 36059 ft 428 kts 316°
2026-04-29 18:27 38.66365 22.11380 36064 ft 427 kts 316°
2026-04-29 18:27 38.70799 22.06334 36064 ft 426 kts 316°
2026-04-29 18:28 38.75225 22.01291 36057 ft 425 kts 316°
2026-04-29 18:28 38.79632 21.96260 36060 ft 424 kts 316°
2026-04-29 18:29 38.84023 21.91235 36074 ft 422 kts 316°
2026-04-29 18:29 38.88393 21.86229 36080 ft 421 kts 316°
2026-04-29 18:30 38.92754 21.81225 36076 ft 420 kts 316°
2026-04-29 18:30 38.97110 21.76217 36083 ft 420 kts 316°
2026-04-29 18:31 39.01472 21.71196 36076 ft 421 kts 316°
2026-04-29 18:31 39.05805 21.66197 36068 ft 421 kts 316°
2026-04-29 18:32 39.10197 21.61122 36072 ft 422 kts 316°
2026-04-29 18:32 39.16717 21.53570 36076 ft 422 kts 316°
2026-04-29 18:33 39.21080 21.48509 36078 ft 422 kts 315°
2026-04-29 18:33 39.25443 21.43437 36088 ft 423 kts 315°
2026-04-29 18:34 39.29074 21.39209 36072 ft 423 kts 316°
2026-04-29 18:34 39.34165 21.33270 36094 ft 422 kts 315°
2026-04-29 18:35 39.38515 21.28186 36091 ft 422 kts 315°
2026-04-29 18:35 39.42859 21.23100 36098 ft 421 kts 315°
2026-04-29 18:36 39.47195 21.18014 36092 ft 421 kts 315°
2026-04-29 18:36 39.51530 21.12921 36089 ft 421 kts 315°
2026-04-29 18:37 39.55893 21.07785 36269 ft 425 kts 315°
2026-04-29 18:37 39.58079 21.05208 36479 ft 425 kts 315°
2026-04-29 18:37 39.60258 21.02639 36727 ft 422 kts 315°
2026-04-29 18:38 39.62414 21.00096 37159 ft 415 kts 315°
2026-04-29 18:38 39.64534 20.97593 37545 ft 410 kts 315°
2026-04-29 18:38 39.66645 20.95097 37648 ft 412 kts 315°
2026-04-29 18:38 39.68767 20.92583 37702 ft 414 kts 315°
2026-04-29 18:39 39.70898 20.90057 37867 ft 414 kts 315°
2026-04-29 18:39 39.73018 20.87542 38067 ft 412 kts 315°
2026-04-29 18:39 39.77250 20.82516 38100 ft 416 kts 315°
2026-04-29 18:40 39.81511 20.77448 38096 ft 414 kts 315°
2026-04-29 18:40 39.85745 20.72404 38101 ft 412 kts 315°
2026-04-29 18:41 39.94151 20.62360 38102 ft 409 kts 315°
2026-04-29 18:42 39.98344 20.57339 38101 ft 409 kts 315°
2026-04-29 18:42 40.02530 20.52316 38093 ft 409 kts 315°
2026-04-29 18:43 40.06722 20.47293 38090 ft 410 kts 316°
2026-04-29 18:43 40.11246 20.42724 38098 ft 412 kts 321°
2026-04-29 18:44 40.15912 20.38332 38091 ft 414 kts 321°
2026-04-29 18:44 40.20578 20.33904 38096 ft 415 kts 321°
2026-04-29 18:45 40.25231 20.29428 38091 ft 416 kts 320°
2026-04-29 18:45 40.29890 20.24921 38084 ft 417 kts 320°
2026-04-29 18:46 40.34552 20.20401 38080 ft 417 kts 320°
2026-04-29 18:46 40.39215 20.15866 38088 ft 417 kts 320°
2026-04-29 18:47 40.43881 20.11320 38081 ft 418 kts 320°
2026-04-29 18:47 40.48547 20.06767 38085 ft 417 kts 320°
2026-04-29 18:48 40.53204 20.02218 38093 ft 417 kts 320°
2026-04-29 18:48 40.57860 19.97663 38079 ft 417 kts 320°
2026-04-29 18:49 40.62496 19.93112 38082 ft 415 kts 320°
2026-04-29 18:49 40.67087 19.88602 38078 ft 414 kts 320°
2026-04-29 18:50 40.71692 19.84070 38079 ft 413 kts 320°
2026-04-29 18:50 40.76287 19.79540 38072 ft 412 kts 320°
2026-04-29 18:51 40.80872 19.75009 38065 ft 411 kts 320°
2026-04-29 18:51 40.85443 19.70487 38075 ft 410 kts 320°
2026-04-29 18:52 40.90004 19.65968 38078 ft 410 kts 320°
2026-04-29 18:52 40.94562 19.61441 38073 ft 410 kts 320°
2026-04-29 18:53 40.99116 19.56912 38079 ft 409 kts 320°
2026-04-29 18:53 41.03667 19.52377 38074 ft 410 kts 320°
2026-04-29 18:54 41.08223 19.47830 38080 ft 410 kts 320°
2026-04-29 18:54 41.12778 19.43273 38072 ft 410 kts 320°
2026-04-29 18:55 41.17336 19.38707 38074 ft 411 kts 320°
2026-04-29 18:55 41.21898 19.34128 38082 ft 411 kts 319°
2026-04-29 18:56 41.26461 19.29541 38072 ft 411 kts 319°
2026-04-29 18:56 41.31017 19.24951 38073 ft 411 kts 319°
2026-04-29 18:57 41.35572 19.20354 38069 ft 411 kts 319°
2026-04-29 18:57 41.40130 19.15746 38063 ft 411 kts 319°
2026-04-29 18:58 41.44682 19.11137 38064 ft 411 kts 319°
2026-04-29 18:58 41.49227 19.06516 38066 ft 411 kts 319°
2026-04-29 18:59 41.53764 19.01881 38056 ft 410 kts 319°
2026-04-29 18:59 41.58295 18.97230 38060 ft 411 kts 319°
2026-04-29 19:00 41.62832 18.92584 38054 ft 411 kts 319°
2026-04-29 19:00 41.67362 18.87935 38054 ft 410 kts 319°
2026-04-29 19:01 41.71879 18.83288 38058 ft 409 kts 319°
2026-04-29 19:01 41.76385 18.78646 38054 ft 409 kts 319°
2026-04-29 19:02 41.80128 18.74781 38055 ft 408 kts 319°
2026-04-29 19:02 41.85359 18.69371 38058 ft 408 kts 319°
2026-04-29 19:03 41.89855 18.64711 38052 ft 409 kts 319°
2026-04-29 19:03 41.94352 18.60040 38046 ft 409 kts 319°
2026-04-29 19:04 41.98846 18.55363 38046 ft 408 kts 319°
2026-04-29 19:04 42.03083 18.50353 38051 ft 403 kts 309°
2026-04-29 19:05 42.06819 18.44754 38053 ft 401 kts 309°
2026-04-29 19:05 42.10548 18.39158 38042 ft 401 kts 309°
2026-04-29 19:06 42.14285 18.33571 38047 ft 402 kts 309°
2026-04-29 19:07 42.19902 18.25174 38047 ft 402 kts 309°
2026-04-29 19:07 42.23649 18.19570 38047 ft 402 kts 309°
2026-04-29 19:08 42.27398 18.13953 38046 ft 403 kts 309°
2026-04-29 19:08 42.31148 18.08324 38046 ft 403 kts 309°
2026-04-29 19:09 42.34894 18.02685 38047 ft 404 kts 309°
2026-04-29 19:09 42.38010 17.97990 38044 ft 404 kts 309°
2026-04-29 19:10 42.41758 17.92329 38047 ft 404 kts 309°
2026-04-29 19:10 42.45506 17.86659 38045 ft 404 kts 309°
2026-04-29 19:11 42.49252 17.80980 38047 ft 404 kts 309°
2026-04-29 19:11 42.52998 17.75288 38050 ft 405 kts 309°
2026-04-29 19:12 42.56743 17.69591 38046 ft 405 kts 309°
2026-04-29 19:12 42.60480 17.63892 38045 ft 404 kts 309°
2026-04-29 19:13 42.64203 17.58202 38047 ft 402 kts 309°
2026-04-29 19:13 42.67913 17.52522 38043 ft 402 kts 309°
2026-04-29 19:14 42.71615 17.46844 38046 ft 401 kts 309°
2026-04-29 19:14 42.75304 17.41171 38046 ft 400 kts 309°
2026-04-29 19:15 42.78984 17.35508 38050 ft 399 kts 309°
2026-04-29 19:15 42.82628 17.29885 38042 ft 398 kts 309°
2026-04-29 19:16 42.86289 17.24225 38047 ft 398 kts 309°
2026-04-29 19:16 42.89943 17.18566 38046 ft 397 kts 308°
2026-04-29 19:17 42.93589 17.12906 38047 ft 397 kts 308°
2026-04-29 19:17 42.97230 17.07247 38047 ft 397 kts 308°
2026-04-29 19:18 43.00872 17.01579 38048 ft 397 kts 308°
2026-04-29 19:18 43.04508 16.95898 38043 ft 397 kts 308°
2026-04-29 19:19 43.08144 16.90207 38047 ft 397 kts 308°
2026-04-29 19:19 43.11780 16.84507 38047 ft 398 kts 308°
2026-04-29 19:20 43.15417 16.78797 38047 ft 398 kts 308°
2026-04-29 19:20 43.19055 16.73074 38045 ft 399 kts 308°
2026-04-29 19:21 43.22694 16.67336 38049 ft 399 kts 308°
2026-04-29 19:21 43.26334 16.61587 38045 ft 399 kts 308°
2026-04-29 19:22 43.29966 16.55839 38050 ft 399 kts 308°
2026-04-29 19:22 43.33599 16.50078 38048 ft 399 kts 308°
2026-04-29 19:23 43.37230 16.44303 38048 ft 399 kts 308°
2026-04-29 19:23 43.40860 16.38525 38042 ft 399 kts 308°
2026-04-29 19:24 43.44482 16.32750 38045 ft 398 kts 308°
2026-04-29 19:24 43.48092 16.26981 38046 ft 397 kts 308°
2026-04-29 19:25 43.51689 16.21221 38045 ft 396 kts 308°
2026-04-29 19:25 43.55273 16.15464 38049 ft 395 kts 308°
2026-04-29 19:26 43.58828 16.09743 38042 ft 395 kts 308°
2026-04-29 19:26 43.62405 16.03987 38049 ft 395 kts 308°
2026-04-29 19:27 43.65973 15.98226 38056 ft 395 kts 307°
2026-04-29 19:27 43.69537 15.92459 38051 ft 395 kts 307°
2026-04-29 19:28 43.73096 15.86687 38056 ft 394 kts 307°
2026-04-29 19:28 43.76649 15.80915 38055 ft 394 kts 307°
2026-04-29 19:29 43.80198 15.75139 38057 ft 394 kts 307°
2026-04-29 19:29 43.83747 15.69348 38059 ft 395 kts 307°
2026-04-29 19:30 43.87298 15.63546 38058 ft 395 kts 307°
2026-04-29 19:30 43.90848 15.57735 38054 ft 395 kts 307°
2026-04-29 19:31 43.94401 15.51905 38055 ft 396 kts 307°
2026-04-29 19:31 43.97955 15.46066 38053 ft 396 kts 307°
2026-04-29 19:32 44.01510 15.40207 38053 ft 396 kts 307°
2026-04-29 19:32 44.05062 15.34340 38049 ft 397 kts 307°
2026-04-29 19:33 44.08614 15.28464 38046 ft 397 kts 307°
2026-04-29 19:33 44.12166 15.22575 38045 ft 397 kts 307°
2026-04-29 19:34 44.15717 15.16678 38046 ft 397 kts 307°
2026-04-29 19:34 44.19261 15.10782 38055 ft 397 kts 307°
2026-04-29 19:35 44.22802 15.04876 38055 ft 397 kts 307°
2026-04-29 19:35 44.26342 14.98960 38057 ft 397 kts 307°
2026-04-29 19:36 44.29876 14.93039 38066 ft 397 kts 307°
2026-04-29 19:36 44.33410 14.87107 38071 ft 397 kts 307°
2026-04-29 19:37 44.36945 14.81162 38077 ft 397 kts 307°
2026-04-29 19:37 44.40479 14.75208 38084 ft 398 kts 307°
2026-04-29 19:38 44.43989 14.69281 38084 ft 399 kts 307°
2026-04-29 19:38 44.47528 14.63291 38096 ft 400 kts 307°
2026-04-29 19:39 44.51074 14.57283 38100 ft 400 kts 307°
2026-04-29 19:39 44.54615 14.51265 38100 ft 400 kts 307°
2026-04-29 19:40 44.58156 14.45233 38096 ft 401 kts 307°
2026-04-29 19:40 44.61696 14.39188 38099 ft 401 kts 307°
2026-04-29 19:41 44.65237 14.33131 38104 ft 401 kts 307°
2026-04-29 19:41 44.68773 14.27066 38100 ft 401 kts 307°
2026-04-29 19:42 44.72308 14.20993 38102 ft 401 kts 307°
2026-04-29 19:42 44.75839 14.14918 38102 ft 401 kts 307°
2026-04-29 19:43 44.79364 14.08839 38100 ft 401 kts 307°
2026-04-29 19:43 44.82879 14.02764 38099 ft 400 kts 307°
2026-04-29 19:44 44.86387 13.96687 38101 ft 399 kts 307°
2026-04-29 19:44 44.89891 13.90620 38107 ft 399 kts 308°
2026-04-29 19:45 44.93574 13.84734 38104 ft 400 kts 310°
2026-04-29 19:45 44.97306 13.78909 38102 ft 401 kts 309°
2026-04-29 19:46 45.01032 13.73039 38099 ft 401 kts 309°
2026-04-29 19:46 45.04740 13.67146 38110 ft 401 kts 309°
2026-04-29 19:47 45.08444 13.61237 38113 ft 401 kts 309°
2026-04-29 19:47 45.12147 13.55316 38116 ft 402 kts 309°
2026-04-29 19:48 45.15843 13.49390 38121 ft 402 kts 309°
2026-04-29 19:48 45.19541 13.43450 38123 ft 402 kts 309°
2026-04-29 19:49 45.23236 13.37502 38124 ft 402 kts 309°
2026-04-29 19:49 45.26930 13.31546 38130 ft 402 kts 309°
2026-04-29 19:50 45.30602 13.25618 38132 ft 403 kts 309°
2026-04-29 19:50 45.34668 13.20107 38133 ft 404 kts 316°
2026-04-29 19:51 45.38921 13.14857 38130 ft 405 kts 316°
2026-04-29 19:51 45.43167 13.09588 38129 ft 405 kts 316°
2026-04-29 19:52 45.47388 13.04286 38131 ft 405 kts 315°
2026-04-29 19:52 45.51599 12.98963 38153 ft 404 kts 315°
2026-04-29 19:53 45.55800 12.93630 38144 ft 404 kts 315°
2026-04-29 19:53 45.59999 12.88291 38147 ft 404 kts 315°
2026-04-29 19:54 45.66287 12.80274 38155 ft 404 kts 315°
2026-04-29 19:54 45.70473 12.74923 38156 ft 404 kts 315°
2026-04-29 19:55 45.73982 12.70432 38155 ft 404 kts 315°
2026-04-29 19:55 45.78169 12.65060 38155 ft 404 kts 315°
2026-04-29 19:56 45.82358 12.59673 38155 ft 405 kts 315°
2026-04-29 19:56 45.86517 12.54315 38160 ft 405 kts 315°
2026-04-29 19:57 45.90704 12.48911 38161 ft 405 kts 315°
2026-04-29 19:57 45.94887 12.43500 38155 ft 405 kts 315°
2026-04-29 19:58 45.99070 12.38076 38156 ft 405 kts 315°
2026-04-29 19:58 46.03252 12.32639 38156 ft 405 kts 315°
2026-04-29 19:59 46.07437 12.27189 38163 ft 406 kts 315°
2026-04-29 19:59 46.11628 12.21719 38166 ft 407 kts 315°
2026-04-29 20:00 46.15819 12.16241 38169 ft 406 kts 315°
2026-04-29 20:00 46.19998 12.10766 38185 ft 406 kts 315°
2026-04-29 20:01 46.24175 12.05277 38171 ft 406 kts 315°
2026-04-29 20:01 46.28359 11.99775 38180 ft 407 kts 315°
2026-04-29 20:02 46.32535 11.94265 38183 ft 406 kts 315°
2026-04-29 20:02 46.36000 11.89683 38184 ft 406 kts 315°
2026-04-29 20:03 46.40863 11.83243 38185 ft 405 kts 315°
2026-04-29 20:03 46.45136 11.77914 38177 ft 406 kts 319°
2026-04-29 20:04 46.49583 11.72884 38191 ft 405 kts 320°
2026-04-29 20:04 46.54036 11.67860 38193 ft 406 kts 319°
2026-04-29 20:05 46.58484 11.62777 38181 ft 407 kts 319°
2026-04-29 20:05 46.62935 11.57654 38179 ft 408 kts 319°
2026-04-29 20:06 46.67392 11.52510 38176 ft 409 kts 319°
2026-04-29 20:06 46.71857 11.47344 38185 ft 410 kts 320°
2026-04-29 20:07 46.76327 11.42164 38171 ft 411 kts 320°
2026-04-29 20:07 46.80802 11.36968 38177 ft 411 kts 320°
2026-04-29 20:08 46.84523 11.32637 38188 ft 412 kts 320°
2026-04-29 20:08 46.89764 11.26523 38189 ft 412 kts 320°
2026-04-29 20:09 46.94240 11.21264 38185 ft 412 kts 318°
2026-04-29 20:09 46.98230 11.15269 38204 ft 411 kts 311°
2026-04-29 20:10 47.02040 11.09095 38196 ft 411 kts 311°
2026-04-29 20:10 47.05891 11.02891 38205 ft 412 kts 312°
2026-04-29 20:11 47.09765 10.96693 38206 ft 413 kts 312°
2026-04-29 20:11 47.13656 10.90477 38199 ft 414 kts 312°
2026-04-29 20:12 47.17545 10.84252 38203 ft 413 kts 312°
2026-04-29 20:12 47.21424 10.78026 38208 ft 413 kts 312°
2026-04-29 20:13 47.25334 10.71735 38201 ft 414 kts 312°
2026-04-29 20:13 47.29191 10.65516 38202 ft 414 kts 312°
2026-04-29 20:14 47.33097 10.59198 38205 ft 414 kts 312°
2026-04-29 20:14 47.36974 10.52917 38214 ft 414 kts 312°
2026-04-29 20:15 47.40963 10.46788 38212 ft 414 kts 320°
2026-04-29 20:15 47.45513 10.41575 38220 ft 414 kts 322°
2026-04-29 20:16 47.50052 10.36412 38229 ft 415 kts 322°
2026-04-29 20:16 47.54620 10.31175 38225 ft 415 kts 322°
2026-04-29 20:17 47.59182 10.25906 38219 ft 416 kts 322°
2026-04-29 20:17 47.63744 10.20619 38215 ft 416 kts 322°
2026-04-29 20:18 47.68310 10.15314 38217 ft 417 kts 322°
2026-04-29 20:18 47.72876 10.09998 38228 ft 417 kts 322°
2026-04-29 20:19 47.77443 10.04663 38223 ft 418 kts 322°
2026-04-29 20:19 47.82020 9.99310 38220 ft 419 kts 322°
2026-04-29 20:20 47.86600 9.93949 38224 ft 418 kts 322°
2026-04-29 20:20 47.91170 9.88578 38224 ft 418 kts 322°
2026-04-29 20:21 47.95735 9.83201 38225 ft 418 kts 322°
2026-04-29 20:21 48.00297 9.77815 38221 ft 418 kts 322°
2026-04-29 20:22 48.04855 9.72420 38226 ft 418 kts 322°
2026-04-29 20:22 48.09389 9.66990 38228 ft 418 kts 319°
2026-04-29 20:23 48.13611 9.61008 38228 ft 418 kts 316°
2026-04-29 20:23 48.17767 9.54912 38228 ft 418 kts 316°
2026-04-29 20:24 48.21933 9.48805 38229 ft 419 kts 316°
2026-04-29 20:24 48.26103 9.42710 38236 ft 418 kts 317°
2026-04-29 20:25 48.30274 9.36624 38242 ft 418 kts 317°
2026-04-29 20:25 48.34443 9.30530 38243 ft 418 kts 317°
2026-04-29 20:26 48.38613 9.24422 38242 ft 418 kts 317°
2026-04-29 20:26 48.42777 9.18306 38259 ft 418 kts 317°
2026-04-29 20:27 48.46234 9.13215 38259 ft 419 kts 317°
2026-04-29 20:27 48.51105 9.06025 38260 ft 419 kts 317°
2026-04-29 20:28 48.55270 8.99862 38257 ft 420 kts 317°
2026-04-29 20:28 48.59438 8.93678 38258 ft 420 kts 317°
2026-04-29 20:29 48.63608 8.87475 38258 ft 421 kts 317°
2026-04-29 20:29 48.67783 8.81256 38262 ft 421 kts 317°
2026-04-29 20:30 48.71958 8.75014 38257 ft 422 kts 317°
2026-04-29 20:30 48.76128 8.68765 38247 ft 422 kts 317°
2026-04-29 20:31 48.80299 8.62505 38252 ft 422 kts 317°
2026-04-29 20:31 48.84435 8.56272 38256 ft 422 kts 317°
2026-04-29 20:32 48.88596 8.49993 38261 ft 422 kts 317°
2026-04-29 20:32 48.92082 8.44721 38256 ft 422 kts 317°
2026-04-29 20:33 48.96915 8.37388 38250 ft 422 kts 317°
2026-04-29 20:33 49.01072 8.31063 38246 ft 422 kts 317°
2026-04-29 20:34 49.05224 8.24735 38254 ft 422 kts 317°
2026-04-29 20:34 49.09367 8.18407 38256 ft 422 kts 317°
2026-04-29 20:35 49.13509 8.12060 38259 ft 422 kts 317°
2026-04-29 20:35 49.17656 8.05691 38260 ft 423 kts 317°
2026-04-29 20:36 49.21804 7.99301 38263 ft 424 kts 317°
2026-04-29 20:36 49.25960 7.92886 38259 ft 425 kts 317°
2026-04-29 20:37 49.30127 7.86440 38254 ft 426 kts 317°
2026-04-29 20:37 49.34295 7.79971 38251 ft 427 kts 317°
2026-04-29 20:38 49.37763 7.74575 38250 ft 428 kts 317°
2026-04-29 20:38 49.41943 7.68063 38249 ft 428 kts 317°
2026-04-29 20:39 49.46115 7.61537 38244 ft 428 kts 317°
2026-04-29 20:39 49.50285 7.55003 38254 ft 428 kts 317°
2026-04-29 20:40 49.54454 7.48450 38253 ft 429 kts 317°
2026-04-29 20:40 49.58620 7.41875 38256 ft 429 kts 317°
2026-04-29 20:41 49.62787 7.35306 38257 ft 428 kts 317°
2026-04-29 20:41 49.66942 7.28731 38268 ft 428 kts 317°
2026-04-29 20:42 49.71089 7.22153 38273 ft 427 kts 316°
2026-04-29 20:42 49.75222 7.15574 38286 ft 426 kts 316°
2026-04-29 20:43 49.79338 7.08995 38285 ft 425 kts 317°
2026-04-29 20:43 49.83453 7.02416 38296 ft 426 kts 316°
2026-04-29 20:44 49.87570 6.95811 38287 ft 427 kts 316°
2026-04-29 20:44 49.91691 6.89181 38277 ft 427 kts 316°
2026-04-29 20:45 49.95805 6.82544 38274 ft 426 kts 316°
2026-04-29 20:45 49.99923 6.75892 38276 ft 427 kts 316°
2026-04-29 20:46 50.04036 6.69215 38260 ft 428 kts 317°
2026-04-29 20:46 50.08161 6.62517 38278 ft 429 kts 317°
2026-04-29 20:47 50.12289 6.55788 38280 ft 430 kts 317°
2026-04-29 20:47 50.16400 6.49067 38276 ft 432 kts 317°
2026-04-29 20:48 50.20322 6.41957 38283 ft 434 kts 309°
2026-04-29 20:48 50.23783 6.34218 38279 ft 435 kts 308°
2026-04-29 20:49 50.27222 6.26439 38274 ft 435 kts 308°
2026-04-29 20:49 50.28944 6.22557 38119 ft 435 kts 308°
2026-04-29 20:49 50.30672 6.18669 37668 ft 433 kts 308°
2026-04-29 20:50 50.32392 6.14809 37132 ft 431 kts 309°
2026-04-29 20:50 50.34094 6.10985 36779 ft 426 kts 309°
2026-04-29 20:50 50.35779 6.07185 36373 ft 423 kts 309°
2026-04-29 20:50 50.37450 6.03426 35972 ft 419 kts 309°
2026-04-29 20:51 50.39107 5.99697 35564 ft 415 kts 310°
2026-04-29 20:51 50.40752 5.95988 35164 ft 413 kts 310°
2026-04-29 20:51 50.42384 5.92305 34773 ft 410 kts 310°
2026-04-29 20:51 50.44009 5.88635 34380 ft 408 kts 310°
2026-04-29 20:52 50.45619 5.84986 33993 ft 406 kts 311°
2026-04-29 20:52 50.47218 5.81362 33605 ft 403 kts 311°
2026-04-29 20:52 50.48810 5.77747 33223 ft 401 kts 311°
2026-04-29 20:52 50.50393 5.74148 32841 ft 400 kts 311°
2026-04-29 20:53 50.51968 5.70562 32464 ft 398 kts 311°
2026-04-29 20:53 50.53536 5.66987 32093 ft 396 kts 311°
2026-04-29 20:53 50.55095 5.63429 31714 ft 394 kts 311°
2026-04-29 20:53 50.56646 5.59883 31340 ft 393 kts 311°
2026-04-29 20:54 50.59724 5.52832 30600 ft 389 kts 311°
2026-04-29 20:54 50.61252 5.49324 30238 ft 388 kts 311°
2026-04-29 20:54 50.62774 5.45826 29874 ft 386 kts 311°
2026-04-29 20:55 50.64284 5.42349 29499 ft 384 kts 311°
2026-04-29 20:55 50.65785 5.38890 29127 ft 382 kts 311°
2026-04-29 20:55 50.67279 5.35442 28755 ft 380 kts 311°
2026-04-29 20:55 50.68765 5.32009 28384 ft 378 kts 310°
2026-04-29 20:56 50.70241 5.28594 28018 ft 376 kts 310°
2026-04-29 20:56 50.71709 5.25193 27656 ft 374 kts 310°
2026-04-29 20:56 50.73167 5.21811 27290 ft 372 kts 310°
2026-04-29 20:56 50.74619 5.18438 26926 ft 370 kts 310°
2026-04-29 20:57 50.76062 5.15084 26567 ft 368 kts 310°
2026-04-29 20:57 50.77493 5.11753 26206 ft 366 kts 310°
2026-04-29 20:57 50.78918 5.08431 25847 ft 364 kts 309°
2026-04-29 20:57 50.80286 5.05069 25480 ft 365 kts 303°
2026-04-29 20:58 50.81288 5.01365 25126 ft 368 kts 292°
2026-04-29 20:58 50.82036 4.97495 24789 ft 367 kts 290°
2026-04-29 20:58 50.82745 4.93632 24431 ft 365 kts 290°
2026-04-29 20:58 50.83450 4.89781 24081 ft 363 kts 290°
2026-04-29 20:59 50.84157 4.85959 23731 ft 361 kts 290°
2026-04-29 20:59 50.84858 4.82206 23390 ft 359 kts 290°
2026-04-29 20:59 50.85570 4.78430 23045 ft 358 kts 290°
2026-04-29 20:59 50.86279 4.74667 22699 ft 356 kts 290°
2026-04-29 21:00 50.86985 4.70925 22355 ft 354 kts 290°
2026-04-29 21:00 50.87686 4.67206 22013 ft 352 kts 290°
2026-04-29 21:00 50.88382 4.63508 21671 ft 350 kts 290°
2026-04-29 21:00 50.89073 4.59825 21338 ft 348 kts 290°
2026-04-29 21:01 50.89758 4.56167 21003 ft 346 kts 290°
2026-04-29 21:01 50.90614 4.52649 20675 ft 339 kts 302°
2026-04-29 21:01 50.91798 4.49456 20376 ft 334 kts 306°
2026-04-29 21:01 50.93023 4.46348 20042 ft 332 kts 306°
2026-04-29 21:02 50.94248 4.43259 19712 ft 330 kts 306°
2026-04-29 21:02 50.95461 4.40181 19379 ft 328 kts 306°
2026-04-29 21:02 50.96661 4.37116 19055 ft 327 kts 306°
2026-04-29 21:02 50.97851 4.34060 18737 ft 325 kts 306°
2026-04-29 21:03 50.99030 4.31020 18414 ft 323 kts 306°
2026-04-29 21:03 51.00201 4.27990 18092 ft 321 kts 306°
2026-04-29 21:03 51.01364 4.24974 17786 ft 319 kts 306°
2026-04-29 21:03 51.02517 4.21977 17458 ft 317 kts 306°
2026-04-29 21:04 51.03665 4.18992 17148 ft 316 kts 306°
2026-04-29 21:04 51.04805 4.16021 16829 ft 314 kts 306°
2026-04-29 21:04 51.05939 4.13068 16519 ft 312 kts 306°
2026-04-29 21:04 51.07067 4.10126 16207 ft 310 kts 306°
2026-04-29 21:05 51.08187 4.07202 15900 ft 309 kts 305°
2026-04-29 21:05 51.09322 4.04320 15591 ft 306 kts 310°
2026-04-29 21:05 51.10789 4.01959 15283 ft 297 kts 327°
2026-04-29 21:05 51.12437 4.00014 14995 ft 294 kts 328°
2026-04-29 21:06 51.14091 3.98109 14697 ft 293 kts 328°
2026-04-29 21:06 51.15740 3.96197 14401 ft 295 kts 328°
2026-04-29 21:06 51.17404 3.94246 14104 ft 299 kts 328°
2026-04-29 21:06 51.19078 3.92269 13793 ft 307 kts 327°
2026-04-29 21:07 51.20826 3.90195 13478 ft 310 kts 327°
2026-04-29 21:07 51.22543 3.88205 13147 ft 307 kts 333°
2026-04-29 21:07 51.24485 3.87015 12882 ft 294 kts 354°
2026-04-29 21:07 51.26483 3.86775 12636 ft 286 kts
2026-04-29 21:08 51.28462 3.86754 12330 ft 283 kts
2026-04-29 21:08 51.30428 3.86757 12023 ft 282 kts
2026-04-29 21:08 51.32386 3.86745 11716 ft 281 kts
2026-04-29 21:08 51.34338 3.86717 11406 ft 280 kts
2026-04-29 21:09 51.36286 3.86676 11094 ft 279 kts
2026-04-29 21:09 51.38227 3.86631 10785 ft 279 kts
2026-04-29 21:09 51.40162 3.86584 10476 ft 278 kts
2026-04-29 21:09 51.42067 3.86823 10142 ft 272 kts 22°
2026-04-29 21:10 51.43773 3.88020 9868 ft 266 kts 30°
2026-04-29 21:10 51.45439 3.89308 9566 ft 265 kts 30°
2026-04-29 21:10 51.47094 3.90596 9270 ft 264 kts 30°
2026-04-29 21:10 51.48741 3.91872 8976 ft 263 kts 30°
2026-04-29 21:11 51.50385 3.93140 8679 ft 262 kts 30°
2026-04-29 21:11 51.52027 3.94408 8381 ft 262 kts 30°
2026-04-29 21:11 51.53665 3.95673 8081 ft 261 kts 30°
2026-04-29 21:11 51.55303 3.96930 7779 ft 261 kts 30°
2026-04-29 21:12 51.56938 3.98186 7485 ft 259 kts 30°
2026-04-29 21:12 51.58565 3.99441 7183 ft 259 kts 30°
2026-04-29 21:12 51.60210 4.00705 6888 ft 258 kts 30°
2026-04-29 21:12 51.61828 4.01949 6602 ft 257 kts 31°
2026-04-29 21:13 51.63416 4.03172 6317 ft 256 kts 31°
2026-04-29 21:13 51.65017 4.04403 6033 ft 255 kts 31°
2026-04-29 21:13 51.66614 4.05639 5753 ft 254 kts 31°
2026-04-29 21:13 51.68204 4.06865 5473 ft 253 kts 31°
2026-04-29 21:14 51.69785 4.08083 5198 ft 251 kts 31°
2026-04-29 21:14 51.71357 4.09300 4944 ft 250 kts 31°
2026-04-29 21:14 51.72897 4.10490 4840 ft 241 kts 31°
2026-04-29 21:14 51.74386 4.11644 4732 ft 234 kts 32°
2026-04-29 21:15 51.75827 4.12756 4634 ft 225 kts 32°
2026-04-29 21:15 51.77216 4.13830 4536 ft 217 kts 32°
2026-04-29 21:15 51.78554 4.14865 4442 ft 209 kts 33°
2026-04-29 21:15 51.79842 4.15867 4401 ft 204 kts 33°
2026-04-29 21:16 51.81120 4.16863 4286 ft 205 kts 33°
2026-04-29 21:16 51.82416 4.17873 4063 ft 207 kts 33°
2026-04-29 21:16 51.83698 4.18870 3827 ft 202 kts 33°
2026-04-29 21:16 51.84953 4.19846 3457 ft 203 kts 34°
2026-04-29 21:17 51.86216 4.20856 3143 ft 199 kts 39°
2026-04-29 21:17 51.87074 4.22394 2944 ft 177 kts 69°
2026-04-29 21:17 51.87704 4.24086 2710 ft 176 kts 57°
2026-04-29 21:17 51.88421 4.25641 2470 ft 169 kts 63°
2026-04-29 21:18 51.89029 4.27242 2253 ft 166 kts 62°
2026-04-29 21:18 51.89642 4.28813 2036 ft 165 kts 61°
2026-04-29 21:18 51.90263 4.30382 1824 ft 165 kts 60°
2026-04-29 21:18 51.90868 4.31902 1608 ft 154 kts 60°
2026-04-29 21:19 51.91417 4.33284 1405 ft 139 kts 60°
2026-04-29 21:19 51.91912 4.34534 1269 ft 130 kts 60°
2026-04-29 21:19 51.92395 4.35765 1033 ft 128 kts 60°
2026-04-29 21:19 51.92862 4.36992 842 ft 127 kts 60°
2026-04-29 21:20 51.93347 4.38193 701 ft 127 kts 58°
2026-04-29 21:20 51.93833 4.39387 549 ft 127 kts 59°
2026-04-29 21:20 51.94313 4.40591 370 ft 127 kts 58°
2026-04-29 21:20 51.94796 4.41795 212 ft 128 kts 58°
2026-04-29 21:21 51.95283 4.43008 49 ft 128 kts 59°
2026-04-29 21:21 51.95734 4.44139 1 ft 98 kts 57°
2026-04-29 21:21 51.95992 4.44788 -2 ft 49 kts 56°
2026-04-29 21:21 51.96139 4.45159 1 ft 24 kts 58°
2026-04-29 21:22 51.96112 4.45372 0 ft 20 kts 140°
2026-04-29 21:22 51.96005 4.45306 0 ft 19 kts 237°
2026-04-29 21:22 51.95932 4.45131 0 ft 18 kts 237°
2026-04-29 21:22 51.95865 4.44959 1 ft 18 kts 238°
2026-04-29 21:23 51.95800 4.44793 0 ft 17 kts 238°
2026-04-29 21:23 51.95736 4.44633 0 ft 17 kts 237°
2026-04-29 21:23 51.95674 4.44481 1 ft 16 kts 237°
2026-04-29 21:23 51.95617 4.44332 0 ft 15 kts 238°
2026-04-29 21:24 51.95578 4.44235 1 ft 15 kts 236°
2026-04-29 21:24 51.95521 4.44098 1 ft 14 kts 237°
2026-04-29 21:24 51.95469 4.43965 0 ft 14 kts 237°
2026-04-29 21:24 51.95419 4.43840 1 ft 13 kts 237°
2026-04-29 21:25 51.95370 4.43720 0 ft 13 kts 237°
2026-04-29 21:25 51.95322 4.43601 0 ft 12 kts 237°
2026-04-29 21:25 51.95264 4.43507 2 ft 12 kts 187°
2026-04-29 21:25 51.95191 4.43565 1 ft 12 kts 147°
2026-04-29 21:26 51.95123 4.43638 1 ft 11 kts 147°
2026-04-29 21:26 51.95058 4.43700 1 ft 10 kts 166°
2026-04-29 21:26 51.95009 4.43635 0 ft 9 kts 238°
2026-04-29 21:26 51.94985 4.43560 1 ft 7 kts 269°
2026-04-29 21:27 51.95008 4.43516 1 ft 4 kts 326°
2026-04-29 21:27 51.95016 4.43507 1 ft 0 kts 325°